Wind_Speed
3 2 2 2 3 3 3 4 4 4 4 4 5 5 5 5 6 6 6 7 6 6 6 6 6 7 7 7 6 6 6 5 5 5 5 5 6 5 6 6 6 6 6 6 6 6 6 6 6
3 3 3 3 3 4 4 4 4 4 4 5 5 5 5 6 6 6 6 6 6 6 6 6 6 7 7 7 7 7 7 6 6 6 6 6 6 6 6 7 7 7 7 7 7 7 7 7 7
4 4 3 3 4 4 4 4 4 4 5 5 5 6 5 6 6 6 6 7 7 7 7 7 7 7 7 8 8 7 8 7 7 6 6 6 6 7 7 8 8 7 7 7 7 7 7 8 8
4 4 4 4 4 4 5 4 4 5 5 5 5 6 6 6 6 6 7 7 7 7 7 7 8 8 8 8 8 8 8 7 8 7 7 7 8 8 8 8 8 8 8 8 8 8 9 9 9
5 5 5 5 6 6 5 5 6 6 6 6 6 6 6 6 6 7 7 7 7 7 7 8 8 8 8 8 8 8 8 8 8 8 8 8 8 8 8 7 8 8 8 8 9 9 10 10 10
6 6 5 6 7 7 7 6 7 7 7 7 7 6 6 6 7 7 7 8 8 8 8 8 8 8 8 8 9 9 8 8 9 9 8 8 8 8 8 8 8 8 9 9 10 10 11 11 11
6 6 6 7 8 8 7 7 7 7 7 7 7 7 7 7 7 8 8 8 8 8 8 8 8 8 8 8 8 8 8 8 8 8 8 8 8 8 8 8 8 8 9 9 9 10 11 11 11
7 6 7 7 7 8 8 8 8 8 8 8 8 8 8 8 8 8 9 9 9 9 8 8 9 9 9 9 9 9 9 9 9 9 9 8 9 9 9 9 9 9 9 9 10 10 10 10 10
7 7 7 7 7 8 8 8 9 9 9 9 9 9 9 9 9 9 9 9 9 9 9 9 9 9 9 9 9 9 9 9 9 10 10 9 9 10 10 10 10 10 10 10 10 10 11 11 11
7 7 8 8 8 8 8 8 9 9 9 10 10 10 10 9 9 9 9 9 10 9 10 9 9 9 9 9 9 9 10 10 10 10 10 10 10 10 10 11 11 11 10 11 11 11 11 11 11
8 8 8 8 8 8 8 9 9 9 9 10 10 10 10 10 10 10 10 10 10 10 10 10 10 9 9 9 9 10 10 10 10 10 10 10 10 10 10 11 11 11 11 11 11 11 11 11 11
9 8 8 8 8 8 8 9 9 9 10 10 11 10 10 10 10 10 11 11 10 11 11 11 10 10 10 9 10 10 10 10 11 11 11 11 11 10 10 10 11 11 11 11 11 11 11 11 11
9 9 8 8 8 8 9 9 9 10 10 10 11 11 11 11 11 11 11 11 11 11 11 11 11 11 10 10 10 11 11 11 11 11 11 11 11 11 10 10 10 10 11 11 11 11 11 11 11
9 9 9 9 8 9 9 9 10 9 10 10 11 11 11 11 11 12 12 12 12 11 11 12 12 11 11 11 11 11 12 12 12 11 11 11 11 11 11 11 11 11 11 11 11 12 11 11 11
9 9 9 9 9 9 9 9 9 9 10 10 11 11 11 11 12 12 12 12 12 12 12 12 13 12 11 11 12 12 12 12 12 12 12 12 12 12 11 11 11 11 11 12 12 12 12 12 12
10 9 9 10 10 10 10 10 10 10 11 11 11 11 11 12 12 13 13 13 13 13 13 13 13 13 12 12 12 12 12 12 12 12 12 12 12 11 11 11 11 12 12 12 12 12 12 12 12
9 9 10 10 10 11 11 11 11 11 11 12 12 12 11 11 12 12 12 12 12 13 13 13 13 13 14 14 13 13 12 12 12 12 12 12 12 12 12 12 12 11 11 11 11 12 13 13 13
10 11 11 11 11 11 11 12 13 12 12 13 12 12 12 11 11 11 11 12 13 13 13 13 13 13 13 14 14 14 13 13 12 12 12 12 12 12 12 12 11 11 11 11 12 12 13 13 13
11 12 12 11 11 12 12 12 12 13 12 13 13 13 12 12 11 11 11 12 12 12 13 13 14 14 14 14 14 14 14 13 13 13 13 13 13 13 13 12 12 12 12 13 13 13 13 13 13
13 13 13 12 13 13 13 13 13 13 13 13 13 13 12 12 12 12 12 13 13 12 12 12 13 14 14 14 14 14 14 14 14 14 14 14 14 13 13 14 14 14 13 14 14 15 15 15 15
14 14 14 13 14 14 14 14 14 14 14 14 14 14 13 14 13 13 13 13 13 13 13 13 13 13 13 13 14 14 15 15 15 15 15 15 15 14 14 15 15 15 15 15 15 16 16 16 16
15 14 14 14 15 15 14 15 14 15 15 14 14 14 14 14 14 14 14 14 14 14 14 14 14 14 14 15 15 15 16 16 16 16 16 16 15 15 15 15 16 16 16 16 16 17 17 17 18
14 14 14 14 15 15 15 16 16 16 15 15 15 15 15 15 15 15 15 14 15 15 15 15 15 15 16 16 17 17 17 17 17 17 17 17 16 16 16 17 17 17 18 18 18 18 18 18 18
15 15 14 14 15 15 15 16 17 16 16 15 15 15 15 15 15 15 15 15 16 16 16 16 17 17 17 17 17 18 18 18 18 18 18 18 18 18 18 19 19 19 19 19 20 20 20 19 19
16 15 15 14 15 15 16 17 17 16 16 17 16 16 16 15 15 15 16 16 16 16 16 17 17 17 18 18 18 18 19 19 19 19 19 19 19 19 19 20 21 21 21 21 21 21 21 21 20
16 16 15 15 15 15 15 17 16 17 16 16 16 16 16 16 16 16 16 16 16 16 17 17 17 17 18 18 19 19 19 19 19 19 19 19 20 20 20 20 21 22 22 22 21 21 21 22 21
17 16 16 16 16 16 16 17 16 17 16 17 17 17 16 16 16 17 17 17 17 17 18 18 18 18 18 18 19 19 20 20 20 20 20 21 21 21 21 21 22 22 22 22 23 22 22 22 22
18 17 16 16 17 17 17 17 17 18 17 16 17 17 17 17 17 18 18 18 18 18 19 19 19 19 19 19 19 19 20 20 20 21 21 22 22 21 21 22 22 22 22 22 23 23 23 22 22
18 18 18 18 18 18 18 18 18 18 18 18 18 18 18 18 18 18 18 18 18 19 19 20 20 19 19 19 19 20 20 20 21 21 21 22 22 22 22 23 23 23 23 23 23 23 23 24 23
19 19 19 19 19 19 19 19 18 17 18 19 19 19 20 19 19 19 19 19 20 19 20 20 20 20 20 21 21 21 21 21 21 22 22 23 23 24 24 24 24 24 24 24 24 23 24 24 25
Wind_Direction
193 189 198 203 201 221 231 239 244 248 247 249 247 252 257 261 262 264 265 260 260 259 259 255 251 251 254 260 263 263 263 263 268 273 267 268 275 274 266 261 263 263 261 264 258 250 250 251 250
203 200 202 204 206 220 237 249 251 255 254 254 253 257 263 267 269 268 268 265 263 261 261 262 256 251 256 261 262 264 264 264 267 273 270 272 275 277 272 266 265 262 264 264 259 257 258 257 256
212 211 204 210 221 232 246 251 252 256 261 262 262 263 268 270 267 265 265 263 263 262 262 262 257 255 259 263 264 265 266 264 267 274 270 270 275 277 275 271 262 261 264 263 262 264 266 263 262
218 221 219 223 237 249 254 255 260 263 264 263 264 267 270 269 264 262 263 265 265 263 264 266 261 262 263 265 266 264 266 268 269 275 273 272 277 280 278 271 264 265 268 264 261 263 264 264 264
220 224 229 231 238 248 252 256 262 264 261 263 265 266 267 267 267 266 267 267 264 263 265 269 265 266 266 266 267 266 264 265 268 274 277 278 281 284 277 273 272 269 269 266 264 265 265 265 263
226 229 232 241 245 250 252 252 261 265 264 265 266 265 265 269 269 267 267 267 264 264 267 269 269 265 266 268 270 268 271 270 269 274 279 281 283 282 282 275 272 271 271 269 269 270 270 267 266
234 238 240 245 249 251 250 256 258 262 267 272 273 270 269 271 270 269 269 268 267 266 266 267 268 271 273 276 273 273 274 276 276 280 280 279 282 282 281 280 274 273 277 271 270 273 273 270 268
233 239 244 248 249 250 253 256 263 264 268 274 275 275 274 274 275 273 272 271 270 268 263 266 268 268 271 273 274 275 277 279 283 283 279 278 280 282 281 279 277 276 275 273 274 274 273 271 269
235 238 247 249 252 255 258 257 261 264 269 273 276 279 279 278 279 278 275 274 271 268 266 268 268 270 272 272 272 274 274 277 282 280 278 279 280 281 281 280 278 278 278 276 275 278 277 274 271
232 237 244 252 256 257 259 261 265 269 273 275 276 279 281 279 277 276 274 272 271 268 266 267 268 272 273 274 275 275 275 276 280 284 281 279 280 281 280 279 277 277 277 278 278 277 278 278 278
238 242 247 251 255 259 263 266 271 275 275 277 279 278 278 276 276 275 275 273 272 271 269 268 270 275 275 275 277 277 277 277 280 283 284 284 284 284 282 280 278 276 277 279 280 278 278 278 278
242 247 251 254 254 260 264 266 272 277 276 278 282 281 280 278 277 276 275 272 272 272 273 273 274 277 279 278 279 279 282 283 282 285 285 285 286 287 285 281 280 279 276 276 277 280 278 277 277
246 248 251 256 258 263 266 270 274 276 277 280 284 281 280 279 273 272 272 269 268 269 270 273 276 277 276 277 279 280 280 285 287 288 287 287 288 287 287 285 282 281 278 278 279 279 279 280 280
247 248 250 255 262 268 270 273 274 277 280 281 283 282 279 277 274 272 274 271 268 267 268 270 273 273 274 276 280 284 282 285 286 289 290 288 289 288 287 285 284 283 283 282 280 279 278 280 283
245 248 251 257 264 269 272 274 276 278 280 282 285 283 279 278 276 276 274 272 270 269 270 273 274 275 277 278 280 284 284 285 287 288 290 289 289 289 287 286 286 286 284 283 281 280 279 279 281
243 248 254 260 265 269 270 274 275 280 282 283 286 288 284 282 281 279 277 275 272 271 273 274 274 273 275 277 278 280 283 283 285 287 288 287 287 287 286 288 289 290 287 286 283 281 280 278 279
250 257 262 264 267 267 269 275 279 282 284 284 284 286 289 286 282 283 283 278 275 275 275 274 272 273 272 274 278 280 282 283 284 284 286 286 286 285 286 288 290 292 291 291 287 282 281 280 281
251 254 260 265 270 270 272 276 279 282 285 286 286 287 288 288 284 285 287 283 278 277 277 276 273 273 274 274 275 277 281 283 283 282 285 286 286 285 284 286 286 287 288 289 288 288 285 284 284
250 254 259 264 269 273 274 275 278 283 283 285 285 285 286 287 286 286 289 288 284 281 279 279 277 274 273 273 274 276 276 281 281 281 283 283 286 285 282 283 284 284 286 289 289 289 288 285 286
253 255 258 262 268 272 274 275 278 282 282 284 285 284 283 283 283 284 289 289 285 284 282 283 280 279 278 275 276 277 279 279 282 281 282 284 283 283 281 283 285 285 285 286 286 287 288 284 283
254 256 258 262 267 272 274 271 273 277 279 281 282 282 282 282 283 283 284 284 281 281 283 282 280 280 279 278 279 281 280 280 281 281 282 284 283 281 282 284 285 285 287 288 288 289 288 286 285
254 256 258 263 265 269 274 275 272 278 278 279 279 280 280 280 281 281 283 282 280 279 280 280 279 279 279 280 282 282 281 280 282 282 283 284 285 282 283 283 284 284 286 286 288 289 288 286 285
255 256 258 260 264 268 272 275 274 277 279 280 279 278 278 279 280 279 280 280 280 279 279 279 279 279 281 282 282 283 282 280 280 281 282 285 284 280 281 283 285 286 286 286 288 289 288 287 284
255 255 255 259 264 267 271 273 273 280 283 280 275 276 279 280 280 280 281 280 280 281 279 279 281 280 281 282 283 284 283 282 280 280 280 282 282 280 279 281 284 286 287 288 288 288 288 287 285
252 254 256 261 266 268 270 273 275 280 280 279 278 277 278 279 281 282 283 282 281 282 281 280 282 283 282 281 282 282 282 281 279 278 278 280 281 280 280 280 283 285 286 287 288 288 288 287 286
250 253 253 254 259 267 270 273 279 278 277 277 277 277 277 279 281 283 284 284 281 281 282 281 283 282 282 282 282 281 281 280 279 278 279 281 283 282 280 281 284 285 285 284 286 287 287 287 286
246 251 253 253 254 256 263 271 273 274 276 277 278 278 279 280 282 282 284 285 283 282 282 284 283 281 281 283 284 283 281 279 277 277 279 280 282 282 281 282 285 287 286 284 284 285 286 286 286
253 251 249 251 255 257 262 268 275 273 275 279 279 279 280 281 283 283 283 284 285 284 284 284 282 282 282 283 284 284 282 279 277 279 279 280 281 282 283 283 286 287 287 286 285 284 284 283 282
251 247 247 249 253 256 260 263 270 273 276 279 279 280 280 281 283 283 282 283 283 283 284 283 282 282 282 282 283 284 283 281 279 279 281 281 281 282 283 284 285 286 285 286 286 285 283 282 281
254 251 248 249 252 255 259 263 267 270 273 277 277 277 279 279 280 280 281 281 281 280 282 282 282 281 282 282 282 282 282 281 280 281 281 282 283 282 283 284 284 286 286 286 285 284 283 281 280
Height
5859 5860 5861 5862 5863 5863 5862 5863 5864 5865 5866 5866 5866 5867 5867 5868 5870 5872 5870 5870 5870 5871 5871 5871 5871 5871 5872 5872 5872 5872 5872 5872 5872 5872 5871 5871 5871 5871 5871 5871 5871 5871 5872 5872 5873 5873 5873 5873 5873
5859 5860 5861 5862 5862 5862 5862 5862 5864 5865 5865 5865 5866 5866 5867 5867 5868 5869 5868 5869 5869 5870 5870 5870 5870 5871 5871 5871 5871 5871 5871 5871 5871 5871 5871 5870 5870 5870 5870 5870 5870 5870 5871 5871 5872 5872 5872 5872 5873
5859 5860 5861 5861 5861 5861 5862 5863 5863 5864 5865 5865 5865 5866 5867 5867 5867 5867 5868 5868 5869 5869 5869 5869 5870 5870 5870 5870 5870 5870 5870 5870 5870 5870 5870 5870 5870 5869 5869 5869 5869 5869 5869 5870 5870 5871 5871 5871 5871
5859 5860 5861 5861 5861 5861 5862 5862 5863 5864 5864 5864 5865 5865 5866 5866 5866 5866 5867 5867 5868 5868 5868 5868 5868 5869 5869 5869 5869 5869 5869 5869 5869 5869 5869 5869 5869 5869 5868 5868 5868 5868 5868 5868 5869 5869 5869 5870 5870
5858 5859 5860 5860 5860 5861 5861 5862 5862 5863 5863 5864 5864 5865 5865 5865 5866 5866 5866 5866 5867 5867 5867 5867 5867 5868 5868 5868 5868 5868 5868 5868 5868 5868 5868 5868 5868 5867 5867 5867 5867 5867 5867 5867 5867 5867 5868 5868 5868
5858 5858 5859 5859 5859 5860 5861 5861 5861 5862 5863 5863 5863 5864 5864 5865 5865 5865 5865 5865 5866 5866 5866 5866 5866 5866 5866 5866 5867 5866 5867 5867 5867 5867 5867 5867 5866 5866 5866 5866 5865 5865 5865 5866 5866 5866 5866 5866 5866
5857 5858 5858 5858 5858 5859 5860 5860 5861 5861 5862 5862 5863 5863 5863 5864 5864 5864 5864 5864 5864 5865 5865 5865 5865 5865 5865 5865 5865 5865 5865 5865 5865 5865 5865 5865 5865 5865 5865 5864 5864 5864 5864 5864 5864 5864 5864 5864 5864
5856 5857 5857 5857 5857 5858 5859 5859 5860 5860 5861 5861 5862 5862 5862 5863 5862 5862 5863 5863 5863 5864 5864 5864 5864 5864 5864 5863 5863 5864 5864 5864 5864 5864 5864 5864 5864 5863 5863 5863 5863 5862 5862 5862 5862 5862 5862 5862 5862
5854 5857 5856 5856 5857 5857 5858 5859 5859 5860 5860 5860 5860 5861 5861 5861 5861 5861 5861 5862 5862 5862 5862 5862 5862 5862 5862 5862 5862 5862 5862 5862 5862 5862 5862 5862 5862 5862 5861 5861 5861 5861 5861 5860 5860 5860 5860 5860 5860
5854 5855 5855 5855 5856 5856 5857 5858 5858 5859 5859 5859 5859 5859 5859 5859 5860 5860 5860 5860 5860 5860 5860 5861 5861 5861 5861 5861 5861 5861 5861 5861 5861 5861 5861 5860 5860 5860 5860 5860 5859 5859 5859 5858 5858 5858 5858 5858 5858
5852 5853 5853 5854 5855 5855 5856 5857 5857 5857 5858 5858 5858 5858 5858 5858 5858 5858 5858 5858 5859 5859 5859 5859 5859 5859 5859 5859 5859 5859 5859 5859 5859 5859 5859 5858 5858 5858 5858 5857 5857 5857 5857 5856 5856 5856 5856 5856 5855
5851 5851 5851 5853 5854 5854 5855 5855 5856 5856 5856 5856 5856 5856 5856 5856 5856 5856 5857 5857 5857 5857 5857 5857 5857 5857 5857 5858 5857 5857 5857 5857 5857 5857 5856 5856 5856 5856 5855 5855 5855 5855 5854 5854 5854 5853 5853 5853 5853
5849 5850 5851 5851 5852 5853 5853 5854 5854 5854 5854 5854 5854 5854 5855 5855 5855 5855 5855 5855 5855 5855 5855 5855 5856 5856 5856 5856 5856 5855 5855 5855 5855 5854 5854 5854 5854 5853 5853 5853 5852 5852 5852 5852 5851 5851 5851 5850 5850
5847 5848 5849 5850 5850 5851 5852 5852 5853 5853 5853 5853 5853 5853 5853 5853 5853 5853 5853 5853 5853 5853 5853 5853 5853 5854 5853 5853 5853 5853 5853 5853 5853 5852 5852 5852 5851 5851 5851 5850 5850 5850 5849 5849 5849 5849 5848 5848 5848
5845 5846 5847 5848 5849 5849 5850 5851 5851 5851 5851 5851 5851 5851 5851 5850 5851 5851 5851 5851 5851 5851 5851 5851 5851 5851 5851 5851 5851 5851 5851 5850 5850 5850 5850 5849 5849 5849 5848 5848 5848 5847 5847 5847 5846 5846 5846 5846 5846
5843 5844 5845 5846 5847 5847 5850 5849 5849 5849 5849 5849 5849 5849 5849 5848 5848 5848 5848 5848 5849 5849 5849 5849 5849 5849 5849 5849 5849 5849 5848 5848 5848 5848 5847 5847 5847 5846 5846 5846 5845 5845 5844 5844 5843 5843 5843 5843 5842
5841 5842 5843 5844 5845 5845 5846 5846 5846 5847 5847 5847 5847 5847 5847 5846 5846 5846 5846 5846 5846 5846 5846 5846 5846 5847 5847 5847 5847 5846 5846 5846 5845 5845 5845 5845 5844 5844 5843 5843 5843 5842 5842 5841 5841 5840 5840 5840 5839
5840 5841 5841 5842 5843 5843 5844 5844 5844 5845 5845 5845 5844 5844 5844 5844 5844 5844 5843 5843 5843 5844 5844 5844 5844 5844 5844 5844 5844 5844 5844 5843 5843 5843 5843 5842 5841 5841 5841 5840 5840 5839 5839 5838 5838 5837 5837 5836 5836
5838 5838 5839 5840 5841 5841 5842 5842 5842 5842 5842 5842 5842 5842 5842 5842 5842 5842 5841 5841 5841 5841 5841 5841 5841 5841 5841 5841 5841 5841 5841 5841 5841 5840 5840 5839 5839 5838 5838 5837 5837 5837 5836 5836 5835 5835 5834 5833 5833
5835 5836 5837 5838 5838 5839 5839 5840 5840 5840 5840 5840 5839 5839 5840 5840 5840 5840 5839 5839 5839 5839 5839 5839 5839 5838 5838 5838 5838 5838 5838 5838 5838 5837 5837 5836 5836 5835 5835 5834 5834 5833 5833 5833 5832 5832 5831 5830 5830
5832 5833 5834 5835 5835 5835 5836 5837 5837 5837 5837 5837 5837 5837 5837 5837 5837 5837 5837 5837 5836 5836 5836 5836 5836 5835 5835 5835 5835 5835 5835 5834 5834 5834 5834 5833 5832 5832 5831 5831 5831 5830 5830 5829 5829 5828 5827 5827 5826
5829 5830 5831 5832 5832 5833 5834 5833 5834 5834 5834 5834 5834 5834 5834 5834 5834 5834 5834 5834 5833 5833 5833 5833 5833 5832 5832 5832 5831 5831 5831 5831 5831 5830 5830 5829 5829 5828 5828 5827 5827 5827 5826 5826 5825 5824 5823 5823 5822
5826 5827 5828 5828 5829 5829 5830 5830 5831 5831 5831 5831 5831 5831 5831 5831 5831 5831 5831 5830 5830 5830 5830 5830 5829 5829 5828 5828 5828 5827 5827 5827 5826 5826 5826 5825 5825 5824 5824 5824 5823 5823 5822 5821 5821 5820 5819 5818 5817
5823 5824 5824 5825 5825 5826 5827 5827 5827 5827 5827 5827 5827 5827 5827 5827 5827 5827 5827 5827 5827 5826 5826 5826 5825 5825 5824 5824 5824 5823 5822 5822 5822 5822 5822 5821 5821 5820 5820 5819 5819 5818 5818 5817 5816 5815 5814 5813 5812
5819 5820 5821 5821 5821 5823 5824 5823 5824 5824 5823 5823 5824 5824 5824 5824 5824 5824 5823 5823 5823 5823 5822 5822 5822 5821 5820 5820 5819 5818 5818 5817 5817 5817 5817 5816 5816 5815 5815 5814 5814 5813 5812 5812 5811 5810 5809 5808 5807
5814 5816 5818 5819 5820 5820 5820 5820 5821 5820 5820 5820 5820 5820 5820 5821 5820 5820 5820 5819 5819 5819 5818 5818 5817 5816 5816 5815 5814 5814 5813 5812 5812 5812 5812 5811 5811 5810 5810 5809 5808 5808 5807 5806 5805 5804 5804 5802 5801
5811 5812 5814 5815 5815 5816 5816 5817 5817 5816 5816 5817 5817 5817 5817 5817 5816 5816 5816 5815 5815 5814 5814 5813 5812 5812 5811 5810 5810 5809 5808 5807 5807 5807 5806 5806 5805 5804 5804 5803 5803 5802 5801 5800 5799 5799 5798 5797 5796
5807 5808 5809 5810 5810 5811 5813 5813 5813 5812 5812 5813 5813 5812 5812 5812 5812 5812 5811 5811 5810 5810 5809 5809 5808 5807 5806 5805 5805 5804 5803 5802 5802 5801 5801 5800 5799 5799 5798 5797 5797 5796 5795 5794 5793 5793 5792 5791 5790
5803 5804 5804 5805 5806 5807 5808 5811 5808 5808 5808 5808 5808 5808 5808 5808 5807 5807 5806 5806 5805 5804 5803 5803 5803 5802 5801 5801 5800 5799 5798 5797 5796 5796 5795 5794 5794 5793 5792 5791 5791 5790 5789 5788 5787 5786 5785 5785 5784
5797 5798 5800 5801 5802 5802 5803 5807 5804 5804 5803 5803 5803 5803 5803 5803 5803 5802 5801 5801 5800 5800 5799 5798 5798 5797 5796 5796 5795 5794 5793 5792 5791 5790 5789 5789 5788 5787 5786 5785 5784 5784 5783 5782 5781 5780 5779 5778 5778